CW5917 Weather Reports


Display with metric or nautical units.
time (UTC)temp
F
wind
direction
speed
MPH
gust
MPH
rain 1hr
in
rain 24hr
in
rain mn
in
humidity
%
barometer
mb
20260503032537 49 216 6.0 10.0 0.00 0.00 0.00 48 1014.5
20260503032031 49 221 6.0 9.0 0.00 0.00 0.00 48 1014.5
20260503031521 49 212 7.0 9.0 0.00 0.00 0.00 48 1014.6
20260503031051 49 220 6.0 8.0 0.00 0.00 0.00 48 1014.6
20260503030525 49 202 5.0 8.0 0.00 0.00 0.00 48 1014.7
20260503030019 49 207 5.0 8.0 0.00 0.00 0.00 48 1014.7
20260503025536 49 208 6.0 8.0 0.00 0.00 0.00 47 1014.7
20260503025020 49 214 5.0 8.0 0.00 0.00 0.00 47 1014.7
20260503024552 49 213 5.0 8.0 0.00 0.00 0.00 47 1014.7
20260503024019 49 225 5.0 7.0 0.00 0.00 0.00 46 1014.8
20260503023559 49 212 4.0 6.0 0.00 0.00 0.00 46 1014.8
20260503023037 50 212 4.0 6.0 0.00 0.00 0.00 46 1014.7
20260503022553 50 212 4.0 6.0 0.00 0.00 0.00 45 1014.7
20260503021539 50 212 4.0 6.0 0.00 0.00 0.00 45 1014.8
20260503021034 51 227 4.0 5.0 0.00 0.00 0.00 44 1014.7
20260503020532 51 227 4.0 5.0 0.00 0.00 0.00 44 1014.7
20260503020022 51 227 3.0 5.0 0.00 0.00 0.00 43 1014.7
20260503015537 52 227 3.0 5.0 0.00 0.00 0.00 42 1014.7
20260503015018 52 227 4.0 5.0 0.00 0.00 0.00 42 1014.7
20260503014537 52 227 4.0 5.0 0.00 0.00 0.00 42 1014.7
20260503014032 52 227 4.0 5.0 0.00 0.00 0.00 41 1014.6
20260503013536 53 230 4.0 5.0 0.00 0.00 0.00 41 1014.6
20260503013020 53 232 4.0 6.0 0.00 0.00 0.00 41 1014.6
20260503012535 53 233 4.0 6.0 0.00 0.00 0.00 40 1014.6
20260503012037 54 234 4.0 6.0 0.00 0.00 0.00 40 1014.6
20260503011536 54 225 4.0 6.0 0.00 0.00 0.00 40 1014.5
20260503011028 54 223 4.0 8.0 0.00 0.00 0.00 39 1014.5
20260503010523 54 243 4.0 7.0 0.00 0.00 0.00 39 1014.5
20260503010031 55 229 5.0 7.0 0.00 0.00 0.00 39 1014.6
20260503005524 55 239 4.0 7.0 0.00 0.00 0.00 39 1014.5
20260503005034 55 238 4.0 8.0 0.00 0.00 0.00 38 1014.6
20260503004537 55 263 5.0 10.0 0.00 0.00 0.00 38 1014.6
20260503004032 55 232 7.0 10.0 0.00 0.00 0.00 38 1014.7
20260503003536 56 245 5.0 10.0 0.00 0.00 0.00 38 1014.6
20260503003033 56 238 6.0 10.0 0.00 0.00 0.00 38 1014.6
20260503002535 56 238 8.0 12.0 0.00 0.00 0.00 37 1014.7
20260503002018 56 257 8.0 14.0 0.00 0.00 0.00 37 1014.7
20260503001534 57 234 8.0 12.0 0.00 0.00 0.00 36 1014.7
20260503001057 57 278 9.0 15.0 0.00 0.00 0.00 36 1014.9
20260503000524 57 243 6.0 14.0 0.00 0.00 0.00 36 1014.9
20260503000018 57 254 9.0 14.0 0.00 0.00 0.00 36 1015.0
20260502235559 58 236 8.0 13.0 0.00 0.00 0.00 35 1014.9
20260502235030 58 250 5.0 12.0 0.00 0.00 0.00 36 1015.6
20260502234521 58 298 6.0 18.0 0.00 0.00 0.00 35 1015.0
20260502234053 58 275 12.0 18.0 0.00 0.00 0.00 34 1014.9
20260502233518 58 218 7.0 13.0 0.00 0.00 0.00 35 1014.9
20260502233019 58 297 8.0 14.0 0.00 0.00 0.00 34 1015.0
20260502232536 58 292 7.0 15.0 0.00 0.00 0.00 33 1015.0
20260502232031 59 250 10.0 20.0 0.00 0.00 0.00 33 1015.0
20260502231531 59 305 8.0 17.0 0.00 0.00 0.00 35 1015.0
20260502231042 59 240 8.0 16.0 0.00 0.00 0.00 34 1015.1
20260502230518 59 249 11.0 14.0 0.00 0.00 0.00 34 1015.1
20260502230021 59 219 9.0 13.0 0.00 0.00 0.00 34 1015.1
20260502225520 59 235 8.0 15.0 0.00 0.00 0.00 34 1015.2
20260502225037 59 295 7.0 16.0 0.00 0.00 0.00 34 1015.2
20260502224553 59 279 8.0 15.0 0.00 0.00 0.00 34 1015.2
20260502224038 59 238 7.0 15.0 0.00 0.00 0.00 35 1015.2
20260502223532 59 218 10.0 16.0 0.00 0.00 0.00 34 1015.2
20260502223050 59 259 8.0 13.0 0.00 0.00 0.00 36 1015.3
20260502222523 59 220 6.0 15.0 0.00 0.00 0.00 35 1015.5
20260502222019 59 284 9.0 20.0 0.00 0.00 0.00 33 1015.4
20260502221546 60 217 12.0 21.0 0.00 0.00 0.00 33 1015.6
20260502221023 60 254 14.0 21.0 0.00 0.00 0.00 34 1015.6
20260502220535 59 243 9.0 17.0 0.00 0.00 0.00 37 1015.6
20260502220041 58 269 11.0 18.0 0.00 0.00 0.00 34 1015.7
20260502215529 58 315 11.0 18.0 0.00 0.00 0.00 33 1015.7
20260502215056 58 300 9.0 17.0 0.00 0.00 0.00 33 1015.8
20260502214532 59 323 11.0 17.0 0.00 0.00 0.00 33 1015.9
20260502214050 59 248 9.0 15.0 0.00 0.00 0.00 36 1015.9
20260502213538 59 290 9.0 16.0 0.00 0.00 0.00 34 1015.8
20260502213021 59 237 11.0 20.0 0.00 0.00 0.00 35 1015.9
20260502212535 59 294 10.0 20.0 0.00 0.00 0.00 34 1015.9
20260502212037 59 258 9.0 17.0 0.00 0.00 0.00 35 1015.9
20260502211556 59 262 11.0 18.0 0.00 0.00 0.00 34 1016.0
20260502211032 59 308 8.0 17.0 0.00 0.00 0.00 37 1016.0
20260502210543 58 270 11.0 17.0 0.00 0.00 0.00 36 1016.1
20260502210044 58 325 8.0 14.0 0.00 0.00 0.00 35 1016.1
20260502205519 59 222 7.0 14.0 0.00 0.00 0.00 35 1016.1
20260502205101 59 309 8.0 14.0 0.00 0.00 0.00 37 1016.3
20260502204523 59 296 8.0 14.0 0.00 0.00 0.00 35 1016.3
20260502204021 59 279 9.0 14.0 0.00 0.00 0.00 35 1016.3
20260502203536 59 259 10.0 15.0 0.00 0.00 0.00 35 1016.4
20260502203024 59 271 11.0 17.0 0.00 0.00 0.00 35 1016.5
20260502202519 59 287 9.0 17.0 0.00 0.00 0.00 37 1016.6
20260502202022 57 267 9.0 17.0 0.00 0.00 0.00 36 1016.7
20260502201536 57 300 4.0 15.0 0.00 0.00 0.00 36 1016.8
20260502201033 57 260 9.0 15.0 0.00 0.00 0.00 37 1016.8
20260502200537 57 234 8.0 17.0 0.00 0.00 0.00 37 1016.9
20260502200047 57 281 10.0 17.0 0.00 0.00 0.00 37 1016.9
20260502195521 57 278 4.0 13.0 0.00 0.00 0.00 36 1017.0
20260502195024 57 250 8.0 12.0 0.00 0.00 0.00 36 1017.0
20260502194519 57 206 5.0 9.0 0.00 0.00 0.00 39 1017.0
20260502194037 57 302 4.0 14.0 0.00 0.00 0.00 36 1017.2
20260502193555 57 281 7.0 14.0 0.00 0.00 0.00 35 1017.3
20260502193022 57 298 6.0 16.0 0.00 0.00 0.00 36 1017.3
20260502192518 58 315 9.0 16.0 0.00 0.00 0.00 36 1017.3
20260502192035 58 246 8.0 14.0 0.00 0.00 0.00 35 1017.5
20260502191555 59 309 4.0 16.0 0.00 0.00 0.00 34 1017.5
20260502191031 59 319 12.0 16.0 0.00 0.00 0.00 36 1017.5
20260502190525 59 293 8.0 17.0 0.00 0.00 0.00 37 1017.5
20260502190018 59 219 9.0 17.0 0.00 0.00 0.00 39 1017.6
20260502185524 58 294 9.0 12.0 0.00 0.00 0.00 39 1017.7
20260502185036 56 296 4.0 10.0 0.00 0.00 0.00 37 1017.9
20260502184519 56 318 5.0 15.0 0.00 0.00 0.00 38 1018.0
20260502184030 56 295 7.0 15.0 0.00 0.00 0.00 36 1018.1
20260502183538 56 285 11.0 15.0 0.00 0.00 0.00 35 1018.2
20260502183024 57 288 9.0 15.0 0.00 0.00 0.00 36 1018.2
20260502182521 57 297 6.0 16.0 0.00 0.00 0.00 33 1018.2
20260502182034 58 312 10.0 16.0 0.00 0.00 0.00 35 1018.3
20260502181536 57 259 8.0 15.0 0.00 0.00 0.00 38 1018.2
20260502181029 56 311 7.0 23.0 0.00 0.00 0.00 39 1018.3
20260502180524 56 333 5.0 14.0 0.00 0.00 0.00 38 1018.4
20260502164019 55 284 6.0 13.0 0.00 0.00 0.00 41 1019.1
20260502163536 55 302 6.0 16.0 0.00 0.00 0.00 42 1019.0
20260502163033 55 283 9.0 16.0 0.00 0.00 0.00 41 1019.1
20260502162519 54 313 9.0 14.0 0.00 0.00 0.00 44 1019.1
20260502162054 54 312 8.0 14.0 0.00 0.00 0.00 42 1019.2
20260502161520 54 281 3.0 17.0 0.00 0.00 0.00 45 1019.2
20260502161034 54 302 10.0 17.0 0.00 0.00 0.00 43 1019.3
20260502160538 54 300 8.0 16.0 0.00 0.00 0.00 45 1019.4
20260502152030 53 250 6.0 10.0 0.00 0.00 0.00 49 1019.7
20260502151034 53 229 7.0 13.0 0.00 0.00 0.00 49 1019.7
20260502150528 53 294 6.0 13.0 0.00 0.00 0.00 49 1019.7
20260502130524 41 298 5.0 8.0 0.00 0.00 0.00 89 1020.2
20260502123533 37 286 5.0 8.0 0.00 0.00 0.00 92 1020.0
20260502123023 37 274 5.0 8.0 0.00 0.00 0.00 92 1020.1
20260502122536 36 262 4.0 8.0 0.00 0.00 0.00 92 1020.0
20260502122037 36 309 3.0 7.0 0.00 0.00 0.00 93 1019.9
20260502121536 35 282 3.0 7.0 0.00 0.00 0.00 92 1020.0
20260502121034 34 271 3.0 6.0 0.00 0.00 0.00 92 1019.9
20260502120519 34 231 2.0 5.0 0.00 0.00 0.00 92 1019.8
20260502115521 33 231 4.0 5.0 0.00 0.01 0.00 92 1019.8
20260502115033 33 231 3.0 5.0 0.00 0.01 0.00 91 1019.8
20260502114532 33 231 3.0 4.0 0.00 0.01 0.00 91 1019.8
20260502114029 33 231 3.0 5.0 0.00 0.01 0.00 91 1019.7
20260502113524 33 231 3.0 5.0 0.00 0.01 0.00 91 1019.7
20260502113048 32 231 3.0 7.0 0.00 0.01 0.00 91 1019.7
20260502112536 32 240 5.0 7.0 0.00 0.01 0.00 91 1019.6
20260502112029 32 231 4.0 6.0 0.00 0.01 0.00 91 1019.5
20260502111519 32 231 4.0 6.0 0.00 0.01 0.00 91 1019.5
20260502111056 32 231 4.0 7.0 0.00 0.01 0.00 91 1019.5
20260502110522 32 223 4.0 8.0 0.00 0.01 0.00 91 1019.6
20260502110034 32 241 4.0 8.0 0.00 0.01 0.00 91 1019.6
20260502105539 33 233 5.0 9.0 0.00 0.01 0.00 91 1019.6
20260502105033 33 233 6.0 9.0 0.00 0.01 0.00 91 1019.5
20260502104552 33 232 6.0 9.0 0.00 0.01 0.00 91 1019.5
20260502104023 33 234 6.0 9.0 0.00 0.01 0.00 91 1019.5
20260502103554 33 229 5.0 10.0 0.00 0.01 0.00 91 1019.4
20260502103020 33 237 6.0 10.0 0.00 0.01 0.00 90 1019.4
20260502102536 33 236 6.0 9.0 0.00 0.01 0.00 90 1019.4
20260502102054 33 236 5.0 9.0 0.00 0.01 0.00 90 1019.5
20260502101523 33 248 6.0 9.0 0.00 0.01 0.00 90 1019.6
20260502101034 33 241 5.0 8.0 0.00 0.01 0.00 90 1019.6
20260502100529 33 229 5.0 7.0 0.00 0.01 0.00 90 1019.4
20260502091030 33 229 4.0 7.0 0.00 0.01 0.00 90 1019.3
20260502090525 33 236 4.0 7.0 0.00 0.01 0.00 89 1019.3
20260502071033 34 215 2.0 4.0 0.00 0.01 0.00 88 1019.3
20260502070518 34 215 2.0 4.0 0.00 0.01 0.00 88 1019.5
20260502070035 34 215 2.0 5.0 0.00 0.01 0.00 88 1019.6
20260502065529 34 215 3.0 4.0 0.00 0.01 0.00 88 1019.5
20260502065040 34 215 3.0 5.0 0.00 0.01 0.00 87 1019.6
20260502064545 34 215 3.0 5.0 0.00 0.01 0.00 87 1019.6
20260502064040 34 215 3.0 5.0 0.00 0.01 0.00 87 1019.6
20260502063556 34 221 3.0 5.0 0.00 0.01 0.00 87 1019.6
20260502063024 34 216 3.0 5.0 0.00 0.01 0.00 87 1019.6
20260502062520 34 219 4.0 5.0 0.00 0.01 0.00 86 1019.6
20260502062021 33 216 3.0 5.0 0.00 0.01 0.00 86 1019.7
20260502061536 33 217 3.0 7.0 0.00 0.01 0.00 85 1019.7
20260502061032 33 217 4.0 7.0 0.00 0.01 0.00 84 1019.8
20260502060525 32 215 5.0 7.0 0.00 0.01 0.00 83 1019.8
20260502060025 32 207 3.0 4.0 0.00 0.01 0.00 81 1019.8
20260502055520 32 215 2.0 4.0 0.00 0.01 0.00 80 1019.8
20260502055035 32 106 0.0 1.0 0.00 0.01 0.00 80 1019.9
20260502054523 32 106 0.0 0.0 0.00 0.01 0.00 80 1019.8
20260502054021 32 106 0.0 0.0 0.00 0.01 0.00 80 1019.8
20260502053535 32 106 0.0 2.0 0.00 0.01 0.00 80 1019.9
20260502053025 33 106 0.0 2.0 0.00 0.01 0.00 80 1019.8
20260502052555 33 106 0.0 2.0 0.00 0.01 0.00 80 1019.8
20260502052031 33 106 1.0 2.0 0.00 0.01 0.00 79 1019.8
20260502051531 33 106 0.0 0.0 0.00 0.01 0.00 77 1019.8
20260502051030 33 106 0.0 1.0 0.00 0.01 0.00 75 1019.8
20260502050523 33 106 0.0 1.0 0.00 0.01 0.00 74 1019.8
20260502050034 33 106 0.0 3.0 0.00 0.01 0.00 74 1019.8
20260502045518 33 106 1.0 3.0 0.00 0.01 0.01 73 1019.8
20260502045037 34 106 0.0 0.0 0.00 0.01 0.01 73 1019.8
20260502044531 34 106 0.0 0.0 0.00 0.01 0.01 72 1019.7
20260502044024 34 106 0.0 0.0 0.00 0.01 0.01 72 1019.8
20260502043517 34 106 0.0 0.0 0.00 0.01 0.01 72 1019.7
20260502043022 34 106 0.0 0.0 0.00 0.01 0.01 72 1019.6
20260502042535 35 106 0.0 0.0 0.00 0.01 0.01 72 1019.6
20260502042030 35 106 0.0 0.0 0.00 0.01 0.01 72 1019.7
20260502041532 35 106 0.0 0.0 0.00 0.01 0.01 72 1019.7
20260502041025 35 106 0.0 0.0 0.00 0.01 0.01 69 1019.6
20260502040518 36 106 0.0 0.0 0.00 0.01 0.01 68 1019.5
20260502040034 36 106 0.0 0.0 0.00 0.01 0.01 67 1019.4
20260502035519 36 106 0.0 0.0 0.00 0.01 0.01 67 1019.5
20260502035033 36 106 0.0 0.0 0.00 0.01 0.01 67 1019.4
20260502034545 37 106 0.0 0.0 0.00 0.01 0.01 66 1019.4
20260502034023 37 106 0.0 1.0 0.00 0.01 0.01 66 1019.4
20260502033517 37 106 0.0 1.0 0.00 0.01 0.01 66 1019.4
20260502033033 37 106 0.0 2.0 0.00 0.01 0.01 66 1019.4